Location: Curupao
(10.4996°N, 66.6442°W)
Time: 11:25:03
(UTC+00:00)

Cosmos 292 Rocket - Pass Details

Date: 23 May 2024
Orbit: 667 x 689 km, 74.0° (Epoch: 20 June)

Event Time Altitude Azimuth Distance (km) Brightness Sun altitude
Exits shadow 09:14:11 - 199° (SSW) 2,430 6.2 -12.1°
Reaches altitude 10° 09:15:04 10° 200° (SSW) 2,084 5.9 -11.9°
Maximum altitude 09:19:43 67° 283° (WNW) 720 3.7 -10.8°
Drops below altitude 10° 09:24:22 10° 6° (N) 2,087 6.7 -9.8°
Sets 09:26:41 0° 9° (N) 3,002 7.6 -9.3°
